Погода в Сан-Луисе

Бразилия     2°29′57″S   44°16′32″W
темп.,
°C
ветер,
м/с
пор.,
м/с
влажн.,
%
обл.,
%
осадки,
мм/ч
давл.,
гПа
погр.,
м
29 июня, ср
ср2900:00+26всв238151 0.0 1014436
03:00+24юв33906 0.6 1012139
06:00+25в22845 3.7 101376
09:00+27вюв24755 5.2 1015370
12:00+27всв23725 2.6 1014406
15:00+29всв12657 3.3 1012742
18:00+27всв237460 0.5 1012349
21:00+26всв447922 2.4 1013321
30 июня, чт
чт3000:00+26всв4682100 0.6 1013409
03:00+25всв588488 4.4 1012314
06:00+25всв588581 4.9 1012316
09:00+27всв697950 8.8 1013585
12:00+28всв677799 5.3 1013737
15:00+28всв6676100 8.4 1011671
18:00+26всв6984100 1.1 1011391
21:00+26всв688653 3.6 1012374
1 июля, пт
пт100:00+26св58879 2.6 1012348
03:00+25всв58877 5.3 1011397
06:00+25всв58881 2.2 1012489
09:00+27всв69810 3.4 1013834
12:00+28всв677517 1.0 1013987
15:00+28всв557810 2.8 1011661
18:00+25в588761 2.4 1011301
21:00+25всв588780 4.4 1013336
2 июля, сб
сб200:00+26всв588482 1.3 1013365
03:00+25всв58878 4.5 1011351
06:00+25в59855 2.0 1012388
09:00+26вюв610790 3.9 1014671
12:00+28в46715 0.8 10141021
15:00+28всв45722 1.4 1012687
18:00+26всв45822 1.2 1012243
21:00+25в46875 2.3 1014247
3 июля, вс
вс300:00+25в47851 1.8 1014294
03:00+25в48860 3.4 1012278
06:00+24вюв49875 1.6 1013304
09:00+26вюв610825 3.6 1015503
12:00+28вюв58725 1.2 10141118
15:00+28в56725 3.1 1013794
18:00+26в34805 1.6 1014229
21:00+25в34845 2.3 1015206